Location: Eindhoven
(51.4416°N, 5.4697°E)
Time: 03:36:02
(UTC+01:00)

Tiros 1 - Pass Details

Date: 20 November 2019
Orbit: 630 x 664 km, 48.4° (Epoch: 10 December)

Event Time Altitude Azimuth Distance (km) Brightness Sun altitude
Rises 18:25:19 0° 274° (W) 2,922 12.0 -15.6°
Reaches altitude 10° 18:27:41 10° 269° (W) 2,015 11.0 -15.9°
Maximum altitude 18:32:09 49° 195° (SSW) 825 7.8 -16.6°
Enters shadow 18:35:11 19° 128° (SE) 1,502 8.7 -17.1°
